When you browse on this site, cookies collect data to enhance your experience and personalize the content and advertising you see.
Visit our Privacy Policy to learn more. By continuing to use the site, you agree to this use of cookies and data.
  • In Latvia
  • List of Countries
  • For 7 days
  • Water Temperature
  • Satellite Maps
  • Weather Map
  • Weather Widgets
  • user-avatar
    Login

    Hourly Weather Jewłach

    Today, 17 July, Wednesday

    Time Temperature Precipitation Wind Pressure Humidity
    00:00 +29°C° 0 mm 1 mps 753 mmHg 57%
    01:00 +28°C° 0 mm 2 mps 753 mmHg 56%
    02:00 +28°C° 0 mm 2 mps 753 mmHg 55%
    03:00 +27°C° 0 mm 2 mps 753 mmHg 55%
    04:00 +27°C° 0 mm 2 mps 753 mmHg 54%
    05:00 +27°C° 0 mm 2 mps 754 mmHg 54%
    06:00 +28°C° 0 mm 2 mps 754 mmHg 54%
    07:00 +29°C° 0 mm 2 mps 754 mmHg 50%
    08:00 +30°C° 0 mm 2 mps 754 mmHg 45%
    09:00 +32°C° 0 mm 2 mps 754 mmHg 41%
    10:00 +34°C° 0 mm 3 mps 754 mmHg 40%
    11:00 +36°C° 0 mm 3 mps 754 mmHg 38%
    12:00 +37°C° 0 mm 4 mps 754 mmHg 37%
    13:00 +39°C° 0 mm 5 mps 753 mmHg 35%
    14:00 +40°C° 0 mm 5 mps 753 mmHg 34%
    15:00 +40°C° 0 mm 6 mps 752 mmHg 33%
    16:00 +39°C° 0 mm 7 mps 752 mmHg 33%
    17:00 +39°C° 0 mm 7 mps 753 mmHg 34%
    18:00 +38°C° 0 mm 8 mps 753 mmHg 35%
    19:00 +35°C° 0 mm 8 mps 753 mmHg 39%
    20:00 +33°C° 0 mm 7 mps 753 mmHg 44%
    21:00 +30°C° 0 mm 6 mps 754 mmHg 48%
    22:00 +29°C° 0 mm 6 mps 754 mmHg 51%
    23:00 +29°C° 0 mm 6 mps 754 mmHg 54%

    Tomorrow, 18 July, Thursday

    Time Temperature Precipitation Wind Pressure Humidity
    00:00 +28°C° 0 mm 5 mps 754 mmHg 57%
    01:00 +27°C° 0 mm 5 mps 754 mmHg 59%
    02:00 +27°C° 0 mm 4 mps 754 mmHg 61%
    03:00 +26°C° 0 mm 3 mps 754 mmHg 62%
    04:00 +27°C° 0 mm 2 mps 754 mmHg 61%
    05:00 +27°C° 0 mm 2 mps 754 mmHg 60%
    06:00 +27°C° 0 mm 2 mps 754 mmHg 59%
    07:00 +29°C° 0 mm 2 mps 754 mmHg 53%
    08:00 +31°C° 0 mm 3 mps 754 mmHg 48%
    09:00 +33°C° 0 mm 3 mps 754 mmHg 42%
    10:00 +35°C° 0 mm 3 mps 754 mmHg 40%
    11:00 +36°C° 0 mm 3 mps 753 mmHg 37%
    12:00 +37°C° 0 mm 3 mps 753 mmHg 35%
    13:00 +38°C° 0 mm 3 mps 753 mmHg 33%
    14:00 +39°C° 0 mm 3 mps 752 mmHg 32%
    15:00 +40°C° 0 mm 3 mps 752 mmHg 30%
    16:00 +40°C° 0 mm 3 mps 752 mmHg 30%
    17:00 +39°C° 0 mm 3 mps 752 mmHg 30%
    18:00 +39°C° 0 mm 3 mps 752 mmHg 30%
    19:00 +37°C° 0 mm 3 mps 752 mmHg 33%
    20:00 +35°C° 0 mm 4 mps 753 mmHg 36%
    21:00 +34°C° 0 mm 5 mps 753 mmHg 38%
    22:00 +32°C° 0 mm 5 mps 753 mmHg 40%
    23:00 +30°C° 0 mm 5 mps 753 mmHg 42%

    Day after tomorrow, 19 July, Friday

    Time Temperature Precipitation Wind Pressure Humidity
    00:00 +29°C° 0 mm 4 mps 754 mmHg 44%
    01:00 +28°C° 0 mm 3 mps 754 mmHg 47%
    02:00 +28°C° 0 mm 2 mps 754 mmHg 50%
    03:00 +27°C° 0 mm 1 mps 754 mmHg 53%
    04:00 +28°C° 0 mm 2 mps 754 mmHg 53%
    05:00 +28°C° 0 mm 2 mps 754 mmHg 52%
    06:00 +28°C° 0 mm 3 mps 755 mmHg 52%
    07:00 +30°C° 0 mm 3 mps 755 mmHg 48%
    08:00 +33°C° 0 mm 3 mps 755 mmHg 44%
    09:00 +34°C° 0 mm 3 mps 755 mmHg 40%
    10:00 +36°C° 0 mm 3 mps 755 mmHg 37%
    11:00 +37°C° 0 mm 3 mps 755 mmHg 34%
    12:00 +38°C° 0 mm 2 mps 755 mmHg 31%
    13:00 +39°C° 0 mm 2 mps 754 mmHg 29%
    14:00 +40°C° 0 mm 2 mps 754 mmHg 28%
    15:00 +41°C° 0 mm 2 mps 754 mmHg 26%
    16:00 +41°C° 0 mm 2 mps 754 mmHg 26%
    17:00 +41°C° 0 mm 2 mps 755 mmHg 27%
    18:00 +40°C° 0 mm 2 mps 755 mmHg 27%
    19:00 +38°C° 0 mm 3 mps 756 mmHg 31%
    20:00 +36°C° 0 mm 4 mps 757 mmHg 35%
    21:00 +33°C° 0 mm 5 mps 757 mmHg 40%
    22:00 +33°C° 0 mm 4 mps 758 mmHg 42%
    23:00 +31°C° 0 mm 3 mps 758 mmHg 43%

    20 July, Saturday

    Time Temperature Precipitation Wind Pressure Humidity
    00:00 +30°C° 0 mm 2 mps 758 mmHg 45%
    01:00 +30°C° 0 mm 2 mps 758 mmHg 46%
    02:00 +29°C° 0 mm 2 mps 758 mmHg 47%
    03:00 +29°C° 0 mm 1 mps 758 mmHg 49%
    04:00 +29°C° 0 mm 2 mps 759 mmHg 49%
    05:00 +29°C° 0 mm 2 mps 759 mmHg 49%
    06:00 +30°C° 0 mm 2 mps 760 mmHg 49%
    07:00 +31°C° 0 mm 2 mps 760 mmHg 45%
    08:00 +34°C° 0 mm 2 mps 760 mmHg 41%
    09:00 +34°C° 0 mm 1 mps 760 mmHg 38%
    10:00 +37°C° 0 mm 2 mps 760 mmHg 34%
    11:00 +38°C° 0 mm 4 mps 760 mmHg 31%
    12:00 +41°C° 0 mm 5 mps 759 mmHg 28%
    13:00 +42°C° 0 mm 5 mps 759 mmHg 26%
    14:00 +42°C° 0 mm 5 mps 759 mmHg 24%
    15:00 +44°C° 0 mm 6 mps 759 mmHg 22%
    16:00 +43°C° 0 mm 7 mps 759 mmHg 23%
    17:00 +43°C° 0 mm 8 mps 759 mmHg 24%
    18:00 +42°C° 0 mm 10 mps 760 mmHg 24%
    19:00 +39°C° 0 mm 9 mps 760 mmHg 28%
    20:00 +37°C° 0 mm 8 mps 761 mmHg 31%
    21:00 +34°C° 0 mm 8 mps 761 mmHg 34%
    22:00 +33°C° 0 mm 7 mps 761 mmHg 36%
    23:00 +32°C° 0 mm 5 mps 762 mmHg 38%

    21 July, Sunday

    Time Temperature Precipitation Wind Pressure Humidity
    00:00 +32°C° 0 mm 4 mps 762 mmHg 40%
    01:00 +30°C° 0 mm 4 mps 762 mmHg 42%
    02:00 +29°C° 0 mm 4 mps 761 mmHg 44%
    03:00 +29°C° 0 mm 4 mps 761 mmHg 45%
    04:00 +29°C° 0 mm 4 mps 761 mmHg 45%
    05:00 +29°C° 0 mm 4 mps 761 mmHg 44%
    06:00 +30°C° 0 mm 4 mps 762 mmHg 44%
    07:00 +32°C° 0 mm 4 mps 761 mmHg 39%
    08:00 +34°C° 0 mm 5 mps 761 mmHg 35%
    09:00 +36°C° 0 mm 6 mps 761 mmHg 31%
    10:00 +38°C° 0 mm 6 mps 760 mmHg 29%
    11:00 +39°C° 0 mm 6 mps 760 mmHg 27%
    12:00 +41°C° 0 mm 6 mps 759 mmHg 25%
    13:00 +41°C° 0 mm 6 mps 759 mmHg 24%
    14:00 +42°C° 0 mm 5 mps 758 mmHg 23%
    15:00 +43°C° 0 mm 5 mps 757 mmHg 22%
    16:00 +42°C° 0 mm 5 mps 757 mmHg 23%
    17:00 +42°C° 0 mm 5 mps 757 mmHg 23%
    18:00 +41°C° 0 mm 5 mps 757 mmHg 24%
    19:00 +39°C° 0 mm 5 mps 758 mmHg 27%
    20:00 +36°C° 0 mm 5 mps 758 mmHg 31%
    21:00 +34°C° 0 mm 6 mps 759 mmHg 34%
    22:00 +32°C° 0 mm 5 mps 759 mmHg 37%
    23:00 +30°C° 0 mm 4 mps 759 mmHg 39%

    22 July, Monday

    Time Temperature Precipitation Wind Pressure Humidity
    00:00 +29°C° 0 mm 4 mps 758 mmHg 42%
    01:00 +29°C° 0 mm 3 mps 758 mmHg 44%
    02:00 +28°C° 0 mm 2 mps 758 mmHg 45%
    03:00 +28°C° 0 mm 2 mps 758 mmHg 47%
    04:00 +28°C° 0 mm 2 mps 758 mmHg 47%
    05:00 +28°C° 0 mm 1 mps 758 mmHg 46%
    06:00 +29°C° 0 mm 1 mps 757 mmHg 45%
    07:00 +31°C° 0 mm 2 mps 757 mmHg 40%
    08:00 +34°C° 0 mm 3 mps 757 mmHg 35%
    09:00 +36°C° 0 mm 3 mps 757 mmHg 31%
    10:00 +37°C° 0 mm 4 mps 756 mmHg 28%
    11:00 +38°C° 0 mm 4 mps 756 mmHg 26%
    12:00 +41°C° 0 mm 4 mps 755 mmHg 24%
    13:00 +42°C° 0 mm 4 mps 755 mmHg 23%
    14:00 +43°C° 0 mm 4 mps 754 mmHg 22%
    15:00 +43°C° 0 mm 4 mps 754 mmHg 20%
    16:00 +43°C° 0 mm 5 mps 754 mmHg 21%
    17:00 +43°C° 0 mm 5 mps 754 mmHg 22%
    18:00 +42°C° 0 mm 5 mps 754 mmHg 22%
    19:00 +40°C° 0 mm 5 mps 754 mmHg 26%
    20:00 +38°C° 0 mm 6 mps 755 mmHg 30%
    21:00 +34°C° 0 mm 6 mps 755 mmHg 35%
    22:00 +33°C° 0 mm 5 mps 755 mmHg 37%
    23:00 +32°C° 0 mm 4 mps 755 mmHg 40%
    Show more